Home   Weather   Jerusalem   Past weeks
Flag for Israel

Past Weather in Jerusalem, Israel — Yesterday and Last 2 Weeks

Now
64 °F

Clear.


Feels Like: 64 °F
Forecast: 93 / 67 °F
Wind: 3 mph from North

Location: Ben Gurion International Airport

Current Time: May 22, 2019 at 6:02:04 am

Latest Report: May 22, 2019 at 5:20 am


Visibility: 10 mi

Pressure: 29.98 "Hg (27.39 "Hg at 769m altitude)

Humidity: 64%

Dew Point: 52 °F

Location of JerusalemLocation

Past Weather in Jerusalem — Graph

°F

Jerusalem Temperature Yesterday

Maximum temperature yesterday: 86 °F (at 2:50 pm)
Minimum temperature yesterday: 64 °F (at 4:50 am)
Average temperature yesterday: 76 °F

High & Low Weather Summary for the Past Weeks

 TemperatureHumidityPressure
High97 °F (May 16, 2:20 pm)100% (May 21, 6:20 am)30.04 "Hg (May 21, 6:20 am)
Low55 °F (May 11, 5:50 am)16% (May 13, 5:50 pm)29.65 "Hg (May 17, 3:20 am)
Average72 °F55%29.89 "Hg
* Reported May 7 4:20 am — May 22 4:50 am, Jerusalem. Weather by CustomWeather, © 2019

Note: Actual official high and low records may vary slightly from our data, if they occured in-between our weather recording intervals... More about our weather records

Advertising

Jerusalem Weather History for the Previous 24 Hours

Scroll right to see more
 ConditionsComfort  
Time TempWeatherWind HumidityBarometerVisibility
4:50 am
Wed, May 22
66 °FClear.5 mph64%29.95 "Hg10 mi
4:20 am66 °FClear.5 mph68%29.95 "Hg10 mi
3:50 am68 °FClear.5 mph64%29.98 "Hg10 mi
3:20 am68 °FClear.2 mph64%29.95 "Hg10 mi
2:50 am68 °FClear.2 mph64%29.98 "Hg10 mi
2:20 am70 °FClear.No wind64%29.98 "Hg10 mi
1:50 am70 °FClear.1 mph60%29.98 "Hg10 mi
1:20 am72 °FClear.3 mph61%29.98 "Hg10 mi
12:50 am72 °FClear.5 mph57%29.98 "Hg10 mi
12:20 am72 °FClear.3 mph57%29.98 "Hg10 mi
11:50 pm
Tue, May 21
72 °FClear.5 mph57%29.98 "Hg10 mi
11:20 pm73 °FClear.5 mph53%29.98 "Hg10 mi
10:50 pm77 °FClear.3 mph44%29.98 "Hg10 mi
10:20 pm77 °FClear.6 mph44%29.98 "Hg10 mi
9:50 pm77 °FClear.6 mph42%29.98 "Hg10 mi
9:20 pm79 °FClear.6 mph39%29.98 "Hg10 mi
8:50 pm81 °FClear.6 mph39%29.98 "Hg10 mi
8:20 pm81 °FClear.7 mph39%29.95 "Hg10 mi
7:50 pm81 °FClear.7 mph45%29.95 "Hg10 mi
7:20 pm82 °FSunny.8 mph45%29.95 "Hg10 mi
6:50 pm84 °FSunny.9 mph43%29.95 "Hg10 mi
6:20 pm84 °FPassing clouds.9 mph43%29.95 "HgN/A
5:50 pm86 °FSunny.9 mph38%29.95 "Hg10 mi
5:20 pm84 °FSunny.9 mph40%29.95 "Hg10 mi
4:50 pm84 °FSunny.12 mph40%29.98 "Hg10 mi
4:20 pm84 °FPassing clouds.10 mph45%29.98 "HgN/A
3:50 pm84 °FSunny.12 mph45%29.98 "Hg10 mi
2:50 pm86 °FSunny.9 mph46%29.98 "Hg10 mi
2:20 pm84 °FSunny.9 mph51%29.98 "Hg10 mi
1:50 pm81 °FSunny.13 mph58%29.98 "Hg10 mi
1:20 pm84 °FSunny.12 mph55%29.98 "Hg10 mi
12:50 pm84 °FSunny.9 mph55%29.98 "Hg10 mi
12:20 pm81 °FSunny.9 mph62%29.98 "Hg10 mi
11:50 am81 °FClear.13 mph66%30.01 "Hg6 mi
11:20 am81 °FClear.10 mph62%30.01 "Hg6 mi
10:50 am81 °FSunny.10 mph62%30.01 "Hg10 mi
10:20 am81 °FSunny.5 mph62%30.01 "Hg10 mi
9:50 am77 °FSunny.2 mph61%30.01 "Hg10 mi
9:20 am75 °FPassing clouds.2 mph69%30.01 "Hg4 mi
8:50 am72 °FScattered clouds.2 mph78%30.01 "Hg3 mi
8:20 am70 °FScattered clouds.2 mph88%30.01 "Hg2 mi
7:50 am68 °FFog.2 mph94%30.01 "Hg1 mi
7:20 am66 °FMild.3 mph94%30.01 "Hg1 mi
6:50 am64 °FFog.5 mph100%29.98 "Hg1 mi
6:20 am64 °FLight fog.5 mph100%29.98 "Hg1 mi
Weather by CustomWeather, © 2019

See weather overview